Other Public Products
Issued by NWS Charleston, SC

Current Version | Previous Version | Graphics & Text | Print | Product List | Glossary On
Versions: 1 2 3 4 5 6 7 8 9 10 11 12 13 14 15 16 17 18 19 20 21 22 23 24 25 26 27 28 29 30 31 32 33 34 35 36 37 38 39 40 41 42 43 44 45 46 47 48 49 50
904
FPUS82 KCHS 211612
OPUCHS

TEST...KCHS/KSAV Gateway Observations...TEST
National Weather Service Charleston SC
1200 PM EDT SAT APR 21 2018

NOTE: "fair" indicates few or no clouds below 12,000 feet with no
significant weather and/or obstructions to visibility.

SCZ050-WAZ558-NCZ071-TXZ119-213-PAZ071-DCZ001-FLZ074-172-MI076-
NYZ176-178-MAZ016-IL014-TNZ027-NJZ106-GAZ044-MD014-211700-

...Gateway Observations for Charleston International...

CITY           SKY/WX    TMP DP  RH WIND       PRES   REMARKS
Chas Airport   FAIR      70  48  45 E16G24    30.37R
Seattle        MOSUNNY   48  38  68 SW17G26   30.35R
Charlotte      FAIR      63  35  35 SE5       30.42F
Dallas DFW     CLOUDY    62  52  69 S13G23    29.95S
Dallas Love    LGT RAIN  62  52  69 SE16      29.96S
Philladelphia  PTSUNNY   53  23  31 W10       30.44F
Wash National  PTSUNNY   55  28  35 NE6       30.47F
Baltimore      PTSUNNY   54  28  36 W13       30.45F
Miami          PTSUNNY   81  66  60 E12       30.12S
Detroit        CLOUDY    50  25  37 SE3       30.49S
Newark         PTSUNNY   56  26  31 NW8G21    30.38F
Laguardia      FAIR      54  24  31 NW12G18   30.37F
J F K          FAIR      55  24  30 NW16G23   30.39F
Boston Logan   FAIR      53  23  31 NW13G21   30.27F
Ft. Lauderdale PTSUNNY   80  68  66 SE7       30.11S
Chicago O`Hare CLOUDY    49  21  33 CALM      30.45S
Chicago Midway CLOUDY    50  23  34 CALM      30.46S
Houston Bush   PTSUNNY   67  61  81 E13       30.05F
Houston Hobby  CLOUDY    70  67  90 E12       30.04S
Nashville      FAIR      68  34  28 SW6       30.32F
Atlanta        PTSUNNY   65  37  35 E16G23    30.34S

$$

GAZ044-118-TXZ119-213-NCZ071-DCZ001-MDZ014-506-PAZ021-071-NJZ106-
NYZ176-178-MAZ106-OHZ011-021-055-MIZ076-KYZ091-ILZ014-INZ047-
MNZ060-ONZ431-211700-

...Gateway Observations for Savannah International...

CITY           SKY/WX    TMP DP  RH WIND       PRES   REMARKS
Savannah Arpt  PTSUNNY   71  52  50 NE17      30.34R
Atlanta        PTSUNNY   65  37  35 E16G23    30.34S
Charlotte      FAIR      63  35  35 SE5       30.42F
Dallas DFW     CLOUDY    62  52  69 S13G23    29.95S
Houston Bush   PTSUNNY   67  61  81 E13       30.05F
Wash National  PTSUNNY   55  28  35 NE6       30.47F
Wash Dulles    PTSUNNY   53  28  38 VRB5      30.46F
Baltimore      PTSUNNY   54  28  36 W13       30.45F
Philadelphia   PTSUNNY   53  23  31 W10       30.44F
Newark         PTSUNNY   56  26  31 NW8G21    30.38F
Laguardia      FAIR      54  24  31 NW12G18   30.37F
J F K          FAIR      55  24  30 NW16G23   30.39F
Boston         FAIR      53  23  31 NW13G21   30.27F
Pittsburg      CLOUDY    47  24  40 CALM      30.44F
Akron          PTSUNNY   49  19  30 SE5       30.44F
Cleveland      CLOUDY    50  16  25 CALM      30.49F
Cincinnati     PTSUNNY   56  22  26 E7        30.40F
Columbus       FAIR      51  23  33 E3        30.44F
Detroit        CLOUDY    50  25  37 SE3       30.49S
Chicago O`Hare CLOUDY    49  21  33 CALM      30.45S
Minneapolis    FAIR      50  25  37 CALM      30.43S
Indianapolis   PTSUNNY   56  24  29 E9        30.42F
Toronto Canada MOSUNNY   52  19  28 W6        30.44F

$$




USA.gov is the U.S. government's official web portal to all federal, state and local government web resources and services.